Location: Unspecified
(41.5000°N, 0.0000°E)
Time: 16:22:37
(UTC+00:00)

Courier 1B Rocket - Pass Details

Date: 01 July 2019
Orbit: 920 x 1202 km, 28.2° (Epoch: 16 July)

Event Time Altitude Azimuth Distance (km) Brightness Sun altitude
Rises 02:06:40 0° 245° (WSW) 4,066 - -19.4°
Reaches altitude 10° 02:09:57 10° 234° (SW) 3,078 - -19.1°
Exits shadow 02:14:58 27° 195° (SSW) 2,024 6.1 -18.6°
Maximum altitude 02:16:15 29° 178° (S) 1,952 6.1 -18.5°
Drops below altitude 10° 02:22:16 10° 122° (ESE) 2,926 7.5 -17.8°
Sets 02:25:19 0° 111° (ESE) 3,835 8.3 -17.5°
